Retour au catalogue

SL-14 DEB

ActifPO
NORAD 45276·DEBRIS·🇷🇺 Russia

Lancé Aug 15, 1991 depuis Plesetsk Cosmodrome

Loading…

Prochains Passages (prochaines 24 heures)

TLE

FraisSource: Space-Track

Époque: Sep 14, 2026, 09:56 UTC

1 45276U 91056N   26257.41403204  .00000431  00000-0  90325-3 0  9995
2 45276  82.5857  52.4943 0048084  84.6924 275.9689 13.29009726318967

Suivez SL-14 DEB en temps réel avec AllMySat

Download on the App Store